Tracking 29892 objects as of 21-Nov-2024
HD Live streaming from Space Station
objects crossing your sky now

STARLINK-3777

Track STARLINK-3777 now!
10-day predictions
STARLINK-3777 is classified as:


NORAD ID: 52294
Int'l Code: 2022-041AK
Perigee: 546.6 km
Apogee: 547.2 km
Inclination: 53.2 °
Period: 95.4 minutes
Semi major axis: 6917 km
RCS: Unknown
Launch date: April 21, 2022
Source: United States (US)
Launch site: AIR FORCE EASTERN TEST RANGE (AFETR)
Your satellite tracking list
Your tracking list is empty




NASA's NSSDC Master Catalog

Two Line Element Set (TLE):
1 52294U 22041AK  24325.26833286  .00000661  00000-0  59604-4 0  9996
2 52294  53.2165  68.8782 0000395  67.1161 292.9873 15.08840506144101
Source of the keplerian elements: AFSPC